LHA8LH KBFI-CYKA

Flight info

Callsign LHA8LH
Flight time 0h 44m
Altitude 35000
Route ALPSE DCT YDC T695 VOLOX
Aircraft B737/M-SDE1E2FGIJ1RWYZ/S

Departure

Time 2026-04-27 17:37
Airport King County International Airport - Boeing Field (KBFI)

Arrival

Time 2026-04-27 18:21
Airport Kamloops John Moose Fulton Field Regional Airport (CYKA)
Time Latitude Longitude Altitude Speed Heading
2026-04-27 17:24 47.53668 -122.31272 24 ft 0 kts 271°
2026-04-27 17:31 47.53668 -122.31258 25 ft 2 kts 274°
2026-04-27 17:31 47.53666 -122.31234 25 ft 2 kts 283°
2026-04-27 17:31 47.53659 -122.31208 26 ft 3 kts 305°
2026-04-27 17:32 47.53649 -122.31188 26 ft 2 kts 310°
2026-04-27 17:32 47.53640 -122.31173 25 ft 0 kts 308°
2026-04-27 17:33 47.53648 -122.31185 26 ft 4 kts 313°
2026-04-27 17:33 47.53686 -122.31223 26 ft 8 kts 329°
2026-04-27 17:34 47.53734 -122.31263 25 ft 8 kts 330°
2026-04-27 17:34 47.53781 -122.31302 25 ft 8 kts 331°
2026-04-27 17:34 47.53827 -122.31338 25 ft 7 kts 332°
2026-04-27 17:34 47.53871 -122.31373 25 ft 7 kts 332°
2026-04-27 17:35 47.53918 -122.31388 25 ft 8 kts 20°
2026-04-27 17:35 47.53953 -122.31322 26 ft 9 kts 61°
2026-04-27 17:35 47.53981 -122.31245 27 ft 8 kts 61°
2026-04-27 17:35 47.54009 -122.31170 29 ft 8 kts 62°
2026-04-27 17:36 47.54007 -122.31097 30 ft 8 kts 140°
2026-04-27 17:36 47.53930 -122.31032 30 ft 31 kts 150°
2026-04-27 17:36 47.53510 -122.30676 28 ft 106 kts 150°
2026-04-27 17:36 47.52719 -122.30021 244 ft 142 kts 154°
2026-04-27 17:37 47.51832 -122.29315 1013 ft 149 kts 155°
2026-04-27 17:37 47.50884 -122.28600 1751 ft 157 kts 156°
2026-04-27 17:37 47.49882 -122.27762 2312 ft 183 kts 141°
2026-04-27 17:37 47.49289 -122.25911 2620 ft 223 kts 96°
2026-04-27 17:38 47.49743 -122.23640 3049 ft 242 kts 53°
2026-04-27 17:38 47.51128 -122.22220 3645 ft 249 kts 13°
2026-04-27 17:38 47.52875 -122.22233 4191 ft 258 kts 345°
2026-04-27 17:38 47.54641 -122.22926 5050 ft 264 kts 342°
2026-04-27 17:39 47.56399 -122.23640 6198 ft 262 kts 344°
2026-04-27 17:39 47.58172 -122.24182 7228 ft 266 kts 350°
2026-04-27 17:39 47.60024 -122.24467 8327 ft 268 kts 355°
2026-04-27 17:39 47.61894 -122.24511 9440 ft 272 kts
2026-04-27 17:40 47.63799 -122.24362 10471 ft 278 kts
2026-04-27 17:40 47.65811 -122.24060 10891 ft 305 kts
2026-04-27 17:40 47.67990 -122.23606 11443 ft 323 kts
2026-04-27 17:40 47.70229 -122.23046 12384 ft 328 kts
2026-04-27 17:41 47.72476 -122.22421 13496 ft 330 kts 10°
2026-04-27 17:41 47.74739 -122.21751 14464 ft 334 kts 10°
2026-04-27 17:41 47.77033 -122.21048 15418 ft 338 kts 11°
2026-04-27 17:41 47.79348 -122.20323 16417 ft 342 kts 11°
2026-04-27 17:42 47.81690 -122.19580 17414 ft 346 kts 11°
2026-04-27 17:42 47.84056 -122.18826 18358 ft 350 kts 11°
2026-04-27 17:42 47.86457 -122.18057 19168 ft 355 kts 11°
2026-04-27 17:42 47.88887 -122.17278 19991 ft 359 kts 11°
2026-04-27 17:43 47.91346 -122.16488 20810 ft 364 kts 11°
2026-04-27 17:43 47.93837 -122.15688 21612 ft 368 kts 11°
2026-04-27 17:43 47.96357 -122.14877 22393 ft 373 kts 11°
2026-04-27 17:43 47.98905 -122.14056 23161 ft 377 kts 11°
2026-04-27 17:44 48.01484 -122.13224 23872 ft 381 kts 11°
2026-04-27 17:44 48.04089 -122.12383 24502 ft 385 kts 11°
2026-04-27 17:44 48.05826 -122.11822 24929 ft 387 kts 11°
2026-04-27 17:45 48.17436 -122.06659 27592 ft 405 kts 28°
2026-04-27 17:45 48.19771 -122.04268 28158 ft 410 kts 37°
2026-04-27 17:46 48.21930 -122.01435 28721 ft 414 kts 39°
2026-04-27 17:46 48.24066 -121.98499 29204 ft 418 kts 40°
2026-04-27 17:46 48.26208 -121.95513 29687 ft 422 kts 40°
2026-04-27 17:46 48.28367 -121.92500 30181 ft 425 kts 40°
2026-04-27 17:47 48.30534 -121.89485 30708 ft 424 kts 40°
2026-04-27 17:47 48.31965 -121.87504 31088 ft 423 kts 40°
2026-04-27 17:47 48.34860 -121.83508 31754 ft 422 kts 40°
2026-04-27 17:47 48.37028 -121.80522 32264 ft 422 kts 40°
2026-04-27 17:48 48.39191 -121.77546 32768 ft 422 kts 40°
2026-04-27 17:48 48.41353 -121.74568 33267 ft 421 kts 40°
2026-04-27 17:48 48.43513 -121.71591 33756 ft 421 kts 40°
2026-04-27 17:48 48.45672 -121.68613 34239 ft 420 kts 40°
2026-04-27 17:49 48.47827 -121.65635 34650 ft 420 kts 40°
2026-04-27 17:49 48.49980 -121.62658 34985 ft 421 kts 40°
2026-04-27 17:49 48.52139 -121.59668 35005 ft 422 kts 40°
2026-04-27 17:50 48.56454 -121.53681 35030 ft 421 kts 40°
2026-04-27 17:50 48.62907 -121.44696 35047 ft 419 kts 40°
2026-04-27 17:51 48.67171 -121.38744 35012 ft 420 kts 40°
2026-04-27 17:51 48.71470 -121.32729 35014 ft 421 kts 40°
2026-04-27 17:52 48.75767 -121.26700 35014 ft 421 kts 40°
2026-04-27 17:52 48.79367 -121.21637 34997 ft 421 kts 40°
2026-04-27 17:53 48.84356 -121.14606 34996 ft 421 kts 40°
2026-04-27 17:53 48.88645 -121.08544 34987 ft 421 kts 40°
2026-04-27 17:54 48.92931 -121.02471 34990 ft 422 kts 40°
2026-04-27 17:54 48.97226 -120.96371 34990 ft 423 kts 40°
2026-04-27 17:55 49.01520 -120.90258 34979 ft 423 kts 40°
2026-04-27 17:55 49.05820 -120.84121 34980 ft 424 kts 41°
2026-04-27 17:56 49.10122 -120.77965 34983 ft 424 kts 41°
2026-04-27 17:56 49.14423 -120.71794 34974 ft 425 kts 41°
2026-04-27 17:57 49.18728 -120.65603 34981 ft 425 kts 41°
2026-04-27 17:57 49.23032 -120.59398 34978 ft 425 kts 41°
2026-04-27 17:58 49.27329 -120.53186 34976 ft 425 kts 41°
2026-04-27 17:58 49.31621 -120.46967 34975 ft 424 kts 41°
2026-04-27 17:59 49.35963 -120.40855 34962 ft 422 kts 33°
2026-04-27 17:59 49.38495 -120.38696 34934 ft 410 kts 20°
2026-04-27 17:59 49.41179 -120.37414 34619 ft 401 kts
2026-04-27 18:00 49.43905 -120.37050 34123 ft 397 kts
2026-04-27 18:00 49.46664 -120.37002 33514 ft 396 kts 360°
2026-04-27 18:00 49.49409 -120.36985 32960 ft 393 kts 360°
2026-04-27 18:00 49.51247 -120.36969 32633 ft 390 kts 360°
2026-04-27 18:01 49.53947 -120.36931 32167 ft 385 kts 360°
2026-04-27 18:01 49.56609 -120.36876 31697 ft 381 kts
2026-04-27 18:01 49.59248 -120.36811 31235 ft 377 kts
2026-04-27 18:01 49.61864 -120.36740 30779 ft 374 kts
2026-04-27 18:02 49.64454 -120.36668 30342 ft 370 kts
2026-04-27 18:02 49.67012 -120.36597 29887 ft 366 kts
2026-04-27 18:02 49.69546 -120.36526 29388 ft 362 kts
2026-04-27 18:02 49.72055 -120.36457 28773 ft 358 kts
2026-04-27 18:03 49.74518 -120.36388 28002 ft 351 kts
2026-04-27 18:03 49.76952 -120.36320 27123 ft 349 kts
2026-04-27 18:03 49.79341 -120.36253 26334 ft 346 kts
2026-04-27 18:03 49.81730 -120.36186 25590 ft 341 kts
2026-04-27 18:04 49.84086 -120.36120 24851 ft 336 kts
2026-04-27 18:04 49.86414 -120.36054 24158 ft 332 kts
2026-04-27 18:04 49.88717 -120.35990 23259 ft 332 kts
2026-04-27 18:04 49.91054 -120.35924 22037 ft 343 kts
2026-04-27 18:05 49.93451 -120.35857 21296 ft 344 kts
2026-04-27 18:05 49.95843 -120.35789 20670 ft 342 kts
2026-04-27 18:05 49.98212 -120.35722 20085 ft 339 kts
2026-04-27 18:05 50.00556 -120.35656 19518 ft 335 kts
2026-04-27 18:06 50.02878 -120.35591 18973 ft 332 kts
2026-04-27 18:06 50.05179 -120.35527 18422 ft 329 kts
2026-04-27 18:06 50.07460 -120.35464 17816 ft 327 kts
2026-04-27 18:06 50.09722 -120.35401 17213 ft 323 kts
2026-04-27 18:07 50.11955 -120.35338 16651 ft 319 kts
2026-04-27 18:07 50.14161 -120.35276 16133 ft 315 kts
2026-04-27 18:07 50.16345 -120.35215 15576 ft 313 kts 360°
2026-04-27 18:07 50.18516 -120.35148 15032 ft 311 kts
2026-04-27 18:08 50.20670 -120.35073 14501 ft 308 kts
2026-04-27 18:08 50.22805 -120.34996 13978 ft 306 kts 360°
2026-04-27 18:08 50.24931 -120.34920 13413 ft 304 kts 360°
2026-04-27 18:08 50.27039 -120.34844 12848 ft 302 kts 359°
2026-04-27 18:09 50.29128 -120.34769 12329 ft 299 kts 359°
2026-04-27 18:09 50.31197 -120.34696 11826 ft 296 kts 359°
2026-04-27 18:09 50.33241 -120.34624 11360 ft 292 kts 359°
2026-04-27 18:09 50.35267 -120.34552 10850 ft 291 kts 359°
2026-04-27 18:10 50.37287 -120.34481 10353 ft 290 kts 358°
2026-04-27 18:10 50.39251 -120.34410 10255 ft 275 kts 359°
2026-04-27 18:10 50.41118 -120.34341 10115 ft 262 kts 358°
2026-04-27 18:10 50.42902 -120.34278 9951 ft 252 kts 358°
2026-04-27 18:11 50.44655 -120.34220 9589 ft 251 kts 358°
2026-04-27 18:11 50.46396 -120.34160 9202 ft 251 kts 358°
2026-04-27 18:11 50.48143 -120.34101 8806 ft 251 kts 357°
2026-04-27 18:11 50.49880 -120.34147 8450 ft 248 kts 355°
2026-04-27 18:12 50.51539 -120.34233 8345 ft 236 kts 355°
2026-04-27 18:12 50.53146 -120.34316 8230 ft 226 kts 356°
2026-04-27 18:12 50.54647 -120.33794 8105 ft 223 kts 25°
2026-04-27 18:12 50.55785 -120.32137 7904 ft 229 kts 53°
2026-04-27 18:13 50.56386 -120.29758 7662 ft 242 kts 75°
2026-04-27 18:13 50.56648 -120.27110 7410 ft 247 kts 80°
2026-04-27 18:13 50.56863 -120.24408 7122 ft 243 kts 80°
2026-04-27 18:13 50.57072 -120.21841 6857 ft 236 kts 80°
2026-04-27 18:14 50.57285 -120.19327 6568 ft 228 kts 80°
2026-04-27 18:14 50.57634 -120.16951 6289 ft 219 kts 65°
2026-04-27 18:14 50.58425 -120.14982 6023 ft 208 kts 43°
2026-04-27 18:14 50.59530 -120.13658 5777 ft 192 kts 24°
2026-04-27 18:15 50.60714 -120.12943 5578 ft 174 kts 11°
2026-04-27 18:15 50.61859 -120.12680 5391 ft 161 kts 359°
2026-04-27 18:15 50.62945 -120.12866 5213 ft 155 kts 343°
2026-04-27 18:15 50.63928 -120.13483 5083 ft 151 kts 328°
2026-04-27 18:16 50.64815 -120.14443 4947 ft 160 kts 318°
2026-04-27 18:16 50.65552 -120.15740 4744 ft 159 kts 298°
2026-04-27 18:16 50.65953 -120.17350 4560 ft 158 kts 290°
2026-04-27 18:16 50.66330 -120.18977 4347 ft 157 kts 290°
2026-04-27 18:17 50.66659 -120.20618 4114 ft 155 kts 286°
2026-04-27 18:17 50.66929 -120.22254 3896 ft 154 kts 284°
2026-04-27 18:17 50.67181 -120.23893 3703 ft 155 kts 284°
2026-04-27 18:17 50.67426 -120.25534 3518 ft 151 kts 284°
2026-04-27 18:18 50.67656 -120.27089 3298 ft 138 kts 283°
2026-04-27 18:18 50.67866 -120.28510 3121 ft 129 kts 283°
2026-04-27 18:18 50.68069 -120.29872 2946 ft 127 kts 284°
2026-04-27 18:18 50.68273 -120.31247 2795 ft 130 kts 284°
2026-04-27 18:19 50.68479 -120.32635 2605 ft 129 kts 283°
2026-04-27 18:19 50.68681 -120.34000 2425 ft 128 kts 284°
2026-04-27 18:19 50.68885 -120.35362 2266 ft 128 kts 283°
2026-04-27 18:19 50.69091 -120.36735 2048 ft 129 kts 283°
2026-04-27 18:20 50.69295 -120.38094 1881 ft 127 kts 284°
2026-04-27 18:20 50.69499 -120.39448 1735 ft 127 kts 283°
2026-04-27 18:20 50.69695 -120.40805 1529 ft 127 kts 281°
2026-04-27 18:20 50.69895 -120.42136 1351 ft 123 kts 284°
2026-04-27 18:21 50.70095 -120.43458 1157 ft 125 kts 283°
2026-04-27 18:21 50.70274 -120.44645 1139 ft 91 kts 283°
2026-04-27 18:21 50.70384 -120.45382 1144 ft 50 kts 283°
2026-04-27 18:21 50.70458 -120.45877 1142 ft 44 kts 283°
2026-04-27 18:22 50.70511 -120.46164 1138 ft 17 kts 308°
2026-04-27 18:22 50.70610 -120.46267 1140 ft 17 kts 329°
2026-04-27 18:22 50.70699 -120.46390 1140 ft 18 kts 290°
2026-04-27 18:22 50.70627 -120.46501 1140 ft 17 kts 193°
2026-04-27 18:23 50.70541 -120.46435 1138 ft 17 kts 105°
2026-04-27 18:23 50.70510 -120.46230 1138 ft 21 kts 103°
2026-04-27 18:23 50.70473 -120.45983 1139 ft 25 kts 103°
2026-04-27 18:23 50.70433 -120.45718 1142 ft 24 kts 103°
2026-04-27 18:24 50.70409 -120.45467 1142 ft 23 kts 76°
2026-04-27 18:24 50.70490 -120.45249 1141 ft 24 kts 57°
2026-04-27 18:24 50.70506 -120.45008 1140 ft 23 kts 103°
2026-04-27 18:24 50.70470 -120.44768 1140 ft 22 kts 103°
2026-04-27 18:25 50.70435 -120.44535 1141 ft 22 kts 103°
2026-04-27 18:25 50.70387 -120.44343 1140 ft 15 kts 145°
2026-04-27 18:25 50.70375 -120.44244 1141 ft 11 kts 64°
2026-04-27 18:25 50.70419 -120.44113 1140 ft 11 kts 62°
2026-04-27 18:26 50.70479 -120.44111 1140 ft 6 kts 331°
2026-04-27 18:26 50.70481 -120.44112 1140 ft 0 kts 330°